Date String (YYYY-MM-DD hh:mm:ss) UTC,Instrument flags,Ambient pressure (hPa),Sample flow (lpm),Bypass flow (lpm),Sample temperature (°C),Ambient temperature (°C),ASC tube jacket temperature (°C),LED temperature (°C),Box temperature (°C),Sample RH (%),Span deviation,Mass concentration (μg/m³),Mass concentration (μg/m³),Mass concentration (μg/m³)
DateTimeUTC,F1_M11,P_M11,Q1_M11,Q2_M11,T1_M11,T2_M11,T3_M11,T4_M11,T5_M11,U1_M11,ZSPAN_M11,X0_M11,X2_M11,X1_M11
2022-10-17 01:00:00,,0833.5,5.00,0.00,30.1,28.7,00.0,38.9,31.9,13.3,0000.0,0011.09,0007.30,0006.89
2022-10-17 01:01:00,,0833.5,5.00,0.00,30.1,28.7,00.0,38.9,31.9,13.3,0000.0,0011.15,0007.34,0006.90
2022-10-17 01:02:00,,0833.5,5.01,0.00,30.1,28.7,00.0,38.9,32.0,13.3,0000.0,0010.76,0007.33,0006.88
2022-10-17 01:03:00,,0833.5,4.99,0.00,30.1,28.7,00.0,38.9,32.0,13.3,0000.0,0010.42,0007.35,0006.89
2022-10-17 01:04:00,,0833.5,4.99,0.00,30.1,28.7,00.0,38.9,32.0,13.4,0000.0,0011.03,0007.37,0006.88
2022-10-17 01:05:00,,0833.5,5.01,0.00,30.1,28.7,00.0,38.9,32.0,13.4,0000.0,0011.26,0007.40,0006.88
2022-10-17 01:06:00,,0833.6,4.99,0.00,30.1,28.7,00.0,38.9,32.0,13.4,0000.0,0011.38,0007.44,0006.88
2022-10-17 01:07:00,,0833.6,4.99,0.00,30.2,28.7,00.0,38.9,32.0,13.4,0000.0,0011.25,0007.44,0006.87
2022-10-17 01:08:00,,0833.6,5.02,0.00,30.2,28.7,00.0,38.9,32.0,13.4,0000.0,0011.41,0007.43,0006.87
2022-10-17 01:09:00,,0833.6,4.99,0.00,30.2,28.7,00.0,38.9,32.0,13.4,0000.0,0011.55,0007.41,0006.85
2022-10-17 01:10:00,,0833.6,4.99,0.00,30.2,28.7,00.0,38.9,32.0,13.4,0000.0,0011.55,0007.38,0006.83
2022-10-17 01:11:00,,0833.6,5.01,0.00,30.2,28.7,00.0,38.9,32.0,13.5,0000.0,0012.31,0007.38,0006.82
2022-10-17 01:12:00,,0833.6,5.00,0.00,30.2,28.7,00.0,38.9,32.0,13.5,0000.0,0012.06,0007.27,0006.78
2022-10-17 01:13:00,,0833.6,5.00,0.00,30.2,28.7,00.0,38.9,32.0,13.5,0000.0,0011.95,0007.23,0006.77
2022-10-17 01:14:00,,0833.6,5.01,0.00,30.2,28.7,00.0,38.9,32.0,13.5,0000.0,0012.29,0007.20,0006.76
2022-10-17 01:15:00,,0833.6,5.00,0.00,30.2,28.7,00.0,39.0,32.0,13.5,0000.0,0012.00,0007.18,0006.73
2022-10-17 01:16:00,,0833.6,4.99,0.00,30.2,28.7,00.0,39.0,32.0,13.5,0000.0,0011.64,0007.15,0006.70
2022-10-17 01:17:00,,0833.6,5.00,0.00,30.2,28.6,00.0,39.0,31.9,13.5,0000.0,0011.93,0007.07,0006.66
2022-10-17 01:18:00,,0833.6,5.01,0.00,30.2,28.6,00.0,39.0,31.9,13.5,0000.0,0012.74,0007.00,0006.61
2022-10-17 01:19:00,,0833.7,4.99,0.00,30.1,28.6,00.0,39.0,31.9,13.5,0000.0,0012.94,0006.96,0006.55
2022-10-17 01:20:00,,0833.6,5.00,0.00,30.1,28.6,00.0,39.0,31.9,13.6,0000.5,0014.44,0006.95,0006.50
2022-10-17 01:21:00,,0833.6,5.01,0.00,30.1,28.6,00.0,39.0,31.9,13.6,0000.7,0014.96,0006.95,0006.47
2022-10-17 01:22:00,,0833.6,4.99,0.00,30.1,28.5,00.0,39.0,31.9,13.6,-000.1,0014.83,0006.92,0006.42
2022-10-17 01:23:00,,0833.6,4.99,0.00,30.1,28.5,00.0,38.9,31.9,13.6,0001.0,0015.39,0006.92,0006.38
2022-10-17 01:24:00,,0833.7,5.01,0.00,30.1,28.5,00.0,38.9,31.9,13.6,0001.3,0015.68,0006.92,0006.35
2022-10-17 01:25:00,,0833.7,5.00,0.00,30.1,28.5,00.0,38.9,31.9,13.7,0001.2,0015.43,0006.91,0006.31
2022-10-17 01:26:00,,0833.7,4.99,0.00,30.1,28.5,00.0,38.9,31.9,13.7,0001.8,0015.31,0006.88,0006.29
2022-10-17 01:27:00,,0833.7,5.02,0.00,30.1,28.5,00.0,38.9,31.9,13.7,0000.3,0015.31,0006.85,0006.27
2022-10-17 01:28:00,,0833.7,4.99,0.00,30.1,28.5,00.0,38.9,31.9,13.7,0000.0,0014.87,0006.82,0006.25
2022-10-17 01:29:00,,0833.7,4.99,0.00,30.1,28.5,00.0,38.9,31.9,13.8,0000.0,0014.43,0006.87,0006.26
2022-10-17 01:30:00,,0833.7,5.02,0.00,30.1,28.5,00.0,38.9,31.9,13.8,0000.0,0014.35,0006.89,0006.27
2022-10-17 01:31:00,,0833.7,5.00,0.00,30.1,28.5,00.0,38.9,31.9,13.8,0000.0,0012.71,0006.89,0006.27
2022-10-17 01:32:00,,0833.7,5.00,0.00,30.1,28.5,00.0,38.9,31.9,13.8,0000.0,0012.13,0006.85,0006.26
2022-10-17 01:33:00,,0833.7,4.99,0.00,30.1,28.5,00.0,38.9,31.8,13.8,0000.0,0011.90,0006.82,0006.25
2022-10-17 01:34:00,,0833.7,5.00,0.00,30.0,28.4,00.0,38.9,31.8,13.8,0000.0,0011.12,0006.82,0006.26
2022-10-17 01:35:00,,0833.7,5.01,0.00,30.0,28.4,00.0,38.9,31.7,13.8,0000.0,0010.86,0006.84,0006.27
2022-10-17 01:36:00,,0833.7,5.00,0.00,30.0,28.4,00.0,38.9,31.8,13.8,0000.0,0010.95,0006.85,0006.28
2022-10-17 01:37:00,,0833.7,5.00,0.00,30.0,28.4,00.0,38.9,31.7,13.8,0000.0,0011.18,0006.84,0006.27
2022-10-17 01:38:00,,0833.8,5.01,0.00,30.0,28.4,00.0,38.9,31.7,13.8,0000.0,0011.58,0006.84,0006.27
2022-10-17 01:39:00,,0833.8,4.99,0.00,30.0,28.4,00.0,38.9,31.7,13.8,0000.0,0011.73,0006.86,0006.27
2022-10-17 01:40:00,,0833.8,5.01,0.00,30.0,28.4,00.0,38.9,31.7,13.8,0000.0,0012.05,0006.81,0006.25
2022-10-17 01:41:00,,0833.9,5.01,0.00,30.0,28.4,00.0,38.9,31.7,13.8,0000.0,0012.43,0006.78,0006.24
2022-10-17 01:42:00,,0833.9,4.98,0.00,30.0,28.3,00.0,38.8,31.7,13.8,0000.0,0012.74,0006.76,0006.24
2022-10-17 01:43:00,,0833.9,5.01,0.00,30.0,28.3,00.0,38.8,31.7,13.8,0000.0,0012.73,0006.80,0006.24
2022-10-17 01:44:00,,0833.9,4.99,0.00,30.0,28.3,00.0,38.8,31.7,13.8,0000.0,0012.67,0006.84,0006.25
2022-10-17 01:45:00,,0833.9,5.02,0.00,30.0,28.4,00.0,38.8,31.7,13.8,0000.0,0013.12,0006.88,0006.25
2022-10-17 01:46:00,,0833.9,4.99,0.00,30.0,28.3,00.0,38.8,31.8,13.8,0000.0,0013.33,0006.88,0006.25
2022-10-17 01:47:00,,0833.9,5.00,0.00,30.0,28.3,00.0,38.8,31.7,13.8,0000.0,0014.03,0006.92,0006.25
2022-10-17 01:48:00,,0833.9,5.01,0.00,29.9,28.3,00.0,38.8,31.7,13.8,0000.0,0014.21,0006.93,0006.27
2022-10-17 01:49:00,,0833.9,4.99,0.00,29.9,28.3,00.0,38.8,31.7,13.8,0000.0,0014.23,0006.96,0006.28
2022-10-17 01:50:00,,0833.9,5.02,0.00,29.9,28.3,00.0,38.8,31.7,13.9,0000.0,0014.26,0007.02,0006.31
2022-10-17 01:51:00,,0833.9,4.99,0.00,29.9,28.3,00.0,38.8,31.7,13.9,0000.0,0014.01,0007.07,0006.35
2022-10-17 01:52:00,,0833.9,4.99,0.00,29.9,28.2,00.0,38.8,31.7,13.9,0000.0,0013.37,0007.12,0006.37
2022-10-17 01:53:00,,0833.9,5.01,0.00,29.9,28.2,00.0,38.8,31.6,13.9,0000.0,0013.63,0007.16,0006.39
2022-10-17 01:54:00,,0834.0,4.99,0.00,29.9,28.2,00.0,38.8,31.6,13.9,0000.0,0013.50,0007.17,0006.42
2022-10-17 01:55:00,,0833.9,5.02,0.00,29.9,28.2,00.0,38.8,31.6,13.9,0000.0,0013.51,0007.17,0006.45
2022-10-17 01:56:00,,0834.0,4.99,0.00,29.9,28.2,00.0,38.7,31.6,13.9,0000.0,0013.15,0007.16,0006.47
2022-10-17 01:57:00,,0834.0,5.00,0.00,29.9,28.2,00.0,38.7,31.6,13.9,0000.0,0013.00,0007.17,0006.50
2022-10-17 01:58:00,,0834.0,5.00,0.00,29.8,28.2,00.0,38.7,31.6,13.9,0000.0,0012.59,0007.13,0006.53
2022-10-17 01:59:00,,0834.0,4.99,0.00,29.8,28.2,00.0,38.7,31.5,14.0,0000.0,0012.86,0007.11,0006.53
